Reflectivity
-10 -16 12 29 15 -17 25 23 -20 -20 -20 -20 -20 -8 -20 -20 -14 24 12 19 0 21 3 -18 -14 -9 4 -19 -8 -20 -20 -20 -20 -17 6 2 -7 2 11 6 10 11 6 -11 -20 -20 -20 -20 -20
8 8 2 9 26 25 11 -20 -20 -20 -20 -20 -20 -20 -20 -16 3 -3 23 16 -18 8 25 28 16 5 -19 -20 -20 -20 -20 -20 -17 -7 -20 3 -20 -20 -9 -20 -20 -20 -20 -20 -14 -18 -20 -20 -20
-15 -9 -6 -18 23 23 8 -20 -20 -20 -20 -20 -20 -17 -20 -15 1 -2 10 -13 -20 -20 4 0 -16 -0 -20 -20 -20 -20 -20 -2 -20 -20 -2 -1 2 -3 -16 -11 -20 -20 -20 -20 -20 -20 -20 -20 -20
11 16 3 21 -20 -20 -20 -20 -20 -20 -20 -20 -20 -20 -20 -17 1 -19 -20 -20 -20 20 -8 -20 7 -20 -20 -20 -20 -20 -5 0 -20 -20 -20 -18 -1 -15 8 -20 -20 -3 -20 -20 -20 -20 -20 -20 -20
15 -15 2 -5 -20 -20 -20 -20 -20 -20 -20 -20 -20 -6 0 8 -20 -20 -15 -20 -15 -20 -20 -20 2 -20 -20 4 -13 -20 -20 -1 -1 -20 -20 1 -6 -20 -20 -20 -16 -19 -20 -20 -20 20 -20 -20 -20
-4 -20 -20 -4 -20 -20 -20 -20 -20 -20 -20 -20 -20 -5 16 12 4 -20 -20 -20 -20 -20 -20 -20 -20 -20 -6 4 -20 -20 -20 -20 -20 -2 -13 -20 -20 -20 -20 -20 -20 -20 -20 -20 -20 -20 -20 -20 -20
-6 -20 -20 -20 -20 -20 -20 -20 -20 -20 -20 -20 -20 3 12 12 -6 -20 -20 -20 -20 -20 -20 -20 -20 -20 -6 0 -20 -16 -20 -20 -20 -20 -20 -20 -20 -20 -20 -20 -20 -20 -20 -20 -20 -20 -20 -20 -20
-20 -20 -20 -20 -20 -20 -20 -20 -20 -20 -20 -20 -20 -20 1 7 -20 -20 -20 -20 -20 -20 -20 -20 -20 -20 -20 -20 -20 -20 -20 -20 -20 -20 -20 -20 -20 -20 -20 -20 -20 -20 -20 -20 -20 -20 -20 -20 -20
-20 -20 -20 -20 -20 -20 -20 -20 -20 -20 -20 -20 -20 -20 -20 -20 -20 -20 -20 -18 -20 -20 -20 -20 -20 -20 -20 -20 -20 -20 -20 -20 -20 -20 -20 -20 -20 -20 -20 -20 -20 -20 -20 -20 -20 -20 -20 -20 -20
-20 -20 -20 -20 -20 -20 -20 -20 -20 -20 -20 -20 -20 -20 -20 -20 -6 -20 -20 -20 0 -20 -20 -20 -20 -20 -20 -20 -20 -20 -20 -20 -20 -20 -20 -20 -20 -20 -20 -20 -20 -20 -20 -20 -20 -20 -20 0 17
-20 -20 -20 -20 -20 -20 -20 -19 -20 -20 -20 -20 -20 -20 -20 -20 -8 -20 -20 -20 -20 -20 -20 -20 -20 -20 -20 -20 -20 -20 -20 -20 -20 -20 -20 -20 -20 -20 -20 -20 -20 -20 -20 12 -4 -20 -20 -20 14
-20 -20 -20 -20 -20 -20 -20 -20 -20 -20 -20 -20 -20 -20 -20 -20 -20 -20 -20 -20 -20 -20 -20 -20 -20 -20 -20 -20 -20 -20 -20 -20 -20 -20 -20 -20 -20 -20 -20 -20 -20 -20 -20 -20 -20 12 -20 -20 -20
-20 -20 -20 -20 -20 -20 -20 -20 -20 -20 -20 -20 -20 -20 -20 -20 -20 -20 -20 -20 -20 -20 -20 -20 -20 -20 -20 -20 -20 -20 -20 -20 -20 -20 -20 -20 -20 -20 -20 -20 -20 -20 -20 -20 -20 -20 -20 -20 -3
-20 -20 -20 -20 -20 -20 -20 -20 -20 -20 -20 -20 -20 -20 -20 -20 -20 -20 -20 -20 -20 -20 -20 -20 -20 -20 -20 -20 -20 -20 -20 -20 -20 -20 -20 -20 -20 -20 -20 -20 -20 -20 -20 -20 -20 -20 3 -14 -16
-20 -20 -20 -20 -20 -20 -20 -20 -20 -20 -20 -20 -20 -20 -20 -20 -20 -20 -20 -20 -20 -20 -20 -20 -20 -20 -20 -20 -20 -20 -20 -20 -20 -20 -20 -20 -20 -20 -20 -20 -20 -20 -20 -20 -20 -20 -20 -20 -20
-20 -20 -20 -20 -20 -20 -20 -17 -20 -20 -20 -20 -20 -20 -20 -20 -20 -20 -20 -20 -20 -20 -20 -20 -20 -20 -20 -20 -20 -20 -20 -20 -20 -20 -20 -20 -20 -20 -20 -20 -20 -20 -20 -20 -20 -20 0 -20 -20
-20 -20 -20 -20 -20 -20 -20 -20 -20 -20 -20 -20 -20 -20 -20 -20 -20 -20 -20 -20 -20 -20 -20 -20 -20 -20 -20 -20 -20 -20 -20 -20 -20 -20 -20 -20 -20 -20 -20 -20 -20 -20 -20 -20 -20 -20 -20 -20 -20
-20 -20 -20 -20 -20 -20 -20 -20 -20 -20 -20 -20 -20 -20 -20 -20 -20 -20 -20 -20 -20 -20 -20 -20 -20 -20 -20 -20 -20 -20 -20 -20 -20 -20 -20 -20 -20 -20 -20 -16 -20 -20 -20 -20 -20 -20 -20 -20 -20
-20 -20 -20 -20 -20 -20 -20 -20 -20 -20 -20 -20 -20 -20 -20 -20 -20 -20 -20 -20 -20 -20 -20 -20 -20 -20 -20 -20 -20 -20 -20 -20 -20 -20 -20 -20 -20 -20 -20 -20 -20 -20 -20 -20 -20 -20 -20 -20 -20
-20 -20 -20 -20 -20 -20 -20 -20 -20 -20 -20 -20 -20 -20 -20 -20 -20 -20 -20 -20 -20 -20 -20 -20 -20 -20 -20 -20 -20 -20 -20 -20 -20 -20 -20 -20 -20 -20 -20 34 -20 -17 -20 -20 -20 -20 -20 -20 -20
-20 -20 -20 -20 -20 -20 -20 -20 -20 -20 -20 -20 -20 -20 -20 -20 -20 -20 -20 -20 -20 -20 -20 -20 -20 -20 -20 -20 -20 -20 -20 -20 -20 -20 -20 -20 -20 -20 -20 -20 -20 -1 -20 -12 -20 -15 -20 -20 -20
-20 -20 -20 -20 -20 -20 -20 -20 -20 -20 -20 -20 -20 -20 -20 -20 -20 -20 -20 -20 -20 -20 -20 -20 -20 -20 -20 -20 -20 -20 -20 -20 -20 -20 -20 -20 -20 -20 -20 -20 -20 -20 -20 -20 -20 -20 -20 -20 -20
-20 -20 -20 -20 -20 -20 -20 -20 -20 -20 -20 -20 -20 -20 -20 -20 -20 -20 -20 -20 -20 -20 -20 -20 -20 -20 -20 -20 -20 -20 -20 -20 -20 -20 -20 -20 -20 -20 -20 -20 -19 -20 -20 -20 -20 -20 -20 -20 -20
-20 -20 -20 -20 -20 -20 -20 -20 -20 -20 -20 -20 -20 -20 -20 -20 -20 -20 -20 -20 -20 -20 -20 -20 -20 -20 -20 -20 -20 -20 -20 -20 -20 -20 -20 -20 -20 -20 -20 -20 -20 -20 -20 -20 -20 -20 -20 -20 -20
-20 -20 -20 -20 -20 -20 -20 -20 -20 -20 -20 -20 -20 -20 -20 -20 -20 -20 -20 -20 -20 -20 -20 -20 -20 -20 -20 -20 -20 -20 -20 -20 -20 -20 -20 -20 -20 -20 -20 -20 -20 -20 -20 -20 -20 -20 -20 -20 -20
-20 -20 -20 -20 -20 -20 -20 -20 -20 -20 -20 -20 -20 -20 -20 -20 -20 -20 -20 -20 -20 -20 -20 -20 -20 -20 -20 -20 -20 -20 -20 -20 -20 -20 -20 -20 -20 -20 -20 -20 -20 -20 -20 -20 -20 -20 -20 -20 -20
-20 -20 -20 -20 -20 -20 -20 -20 -20 -20 -20 -20 -20 -20 -20 -20 -20 -20 -20 -20 -20 -20 -20 -20 -20 -20 -20 -20 -20 -20 -20 -20 -20 -20 -20 -20 -20 -20 -20 -20 -20 -20 -20 -20 -20 -20 -20 -20 -20
-20 -20 -20 -20 -20 -20 -20 -20 -20 -20 -20 -20 -20 -20 -20 -20 -20 -20 -20 -20 -20 -20 -20 -20 -20 -20 -20 -20 -20 -20 -20 -20 -20 -20 -20 -20 -20 -20 -20 -20 -20 -20 -20 -20 -20 -20 -20 -20 -20
-20 -20 -20 -20 -20 -20 -20 -20 -20 -20 -20 -20 -20 -20 -20 -20 -20 -20 -20 -20 -20 -20 -20 -20 -20 -20 -20 -20 -20 -20 -20 -20 -20 -20 -20 -20 -20 -20 -20 -20 -20 -20 -20 -20 -20 -20 -20 -20 -20
-20 -20 -20 -20 -20 -20 -20 -20 -20 -20 -20 -20 -20 -20 -20 -20 -20 -20 -20 -20 -20 -20 -20 -20 -20 -20 -20 -20 -20 -20 -20 -20 -20 -20 -20 -20 -20 -20 -20 -20 -20 -20 -20 -20 -20 -20 -20 -20 -20
Wind_Speed
14 13 7 6 4 5 1 5 2 8 6 4 12 2 9 11 6 9 20 13 12 16 9 15 15 17 18 17 16 16 16 15 14 13 13 13 11 11 11 11 11 11 11 10 10 8 8 8 7
12 6 4 4 5 2 6 3 5 7 9 10 10 7 8 7 4 11 16 18 17 19 15 16 16 17 17 16 15 14 15 14 13 13 13 12 11 11 10 10 10 10 9 9 9 7 7 6 6
13 6 5 4 3 3 5 5 7 9 10 6 5 6 5 6 14 17 20 22 20 16 14 17 16 16 16 16 15 14 14 13 13 12 12 11 11 10 9 9 8 7 8 7 8 6 6 6 6
9 4 5 5 5 7 7 6 9 10 7 3 8 11 9 7 14 14 26 21 21 17 18 16 16 16 16 15 15 14 13 13 12 11 10 10 9 9 9 9 8 8 7 7 6 5 5 4 3
4 4 6 8 6 5 6 10 6 4 3 7 5 8 9 9 13 25 21 18 19 18 18 16 14 14 14 14 14 13 12 12 11 10 9 8 8 8 9 8 7 8 8 7 7 5 5 4 4
6 4 7 2 7 5 8 10 5 5 8 7 8 14 5 14 21 20 21 19 18 18 18 17 14 13 13 13 13 12 11 11 9 9 8 7 7 7 6 7 7 7 7 6 6 5 4 5 5
8 5 4 2 5 7 10 8 4 7 9 9 16 11 10 18 20 20 19 18 17 18 16 15 14 13 12 11 11 11 10 9 8 7 7 6 6 5 5 5 5 5 4 3 3 4 2 3 5
4 5 8 4 5 12 10 7 7 8 8 14 12 9 15 21 22 20 18 18 17 17 16 14 13 13 11 11 10 9 8 7 6 6 5 4 6 4 4 5 5 3 3 2 4 4 3 3 6
4 7 8 5 4 10 12 11 7 7 13 7 5 9 22 24 21 20 20 16 12 14 16 15 14 12 10 10 10 9 7 6 6 7 5 9 3 4 6 9 3 3 3 4 4 4 4 5 9
9 9 2 5 1 5 12 8 11 9 14 11 8 17 25 26 20 21 21 18 18 18 17 15 14 13 10 8 10 7 8 8 6 4 4 3 4 3 5 3 2 2 2 3 1 2 5 11 8
8 6 1 3 3 4 11 9 8 9 12 14 15 23 27 25 21 21 20 19 20 18 15 16 13 12 11 7 7 5 5 4 5 5 4 2 1 2 2 1 5 5 5 4 7 6 0 4 3
9 10 6 5 5 1 5 8 9 10 6 14 17 24 27 26 23 22 21 20 18 18 16 15 14 11 11 7 7 6 5 5 4 5 4 2 4 3 1 2 3 3 3 3 3 3 5 0 3
16 8 7 9 8 6 6 9 7 10 6 16 20 24 25 23 23 20 20 19 18 18 17 15 14 12 10 8 6 6 5 6 6 5 5 3 3 1 3 4 2 2 4 1 3 0 1 2 5
9 14 9 8 8 5 9 8 9 11 9 18 21 24 24 24 24 20 20 19 18 17 17 16 15 14 12 10 8 6 6 5 5 5 4 5 5 2 1 2 1 1 2 5 5 4 1 3 5
11 10 11 12 11 7 8 11 13 15 15 18 21 21 23 23 23 22 21 19 18 16 17 16 16 15 13 12 10 8 6 7 6 6 5 6 5 5 3 1 3 1 3 1 1 1 1 5 1
14 15 14 16 14 8 14 11 16 17 17 19 21 21 22 23 24 21 20 19 19 17 17 16 14 16 15 12 9 8 7 7 6 6 6 7 7 6 5 4 2 3 3 1 1 1 4 3 3
13 14 19 11 16 9 15 9 17 19 19 19 21 22 22 22 23 22 22 20 19 18 17 17 16 15 15 13 10 10 9 8 7 7 6 7 8 8 7 5 1 2 2 3 1 5 2 4 1
17 18 16 16 15 13 16 15 6 19 19 19 20 21 22 23 25 22 22 21 20 19 17 16 15 15 14 10 9 9 9 9 8 8 7 6 7 9 8 5 3 4 3 2 1 5 2 2 3
13 12 18 15 9 13 16 14 12 14 18 19 20 21 22 23 22 22 21 21 20 19 19 19 18 16 13 12 11 10 10 9 9 8 9 7 7 8 8 7 4 5 4 3 3 3 4 2 2
22 16 19 13 6 9 16 15 13 13 19 20 20 21 22 21 22 23 23 22 22 21 20 19 19 17 15 12 10 9 9 10 10 9 9 9 7 7 7 7 7 5 1 4 4 4 1 0 2
23 23 18 15 11 14 13 15 15 11 15 18 20 21 20 22 23 24 24 25 23 23 22 20 19 18 16 15 10 9 9 9 9 10 9 10 10 9 9 7 5 7 5 4 4 5 4 0 1
25 23 18 16 12 13 16 14 19 20 17 18 20 20 23 24 24 23 24 24 24 23 22 21 19 19 17 17 13 13 12 11 11 10 10 9 11 10 9 7 7 8 6 3 4 4 4 4 3
20 17 18 21 18 17 21 11 16 12 18 19 20 22 22 25 25 25 26 27 26 24 22 21 20 19 18 17 16 13 14 12 9 10 9 10 9 12 11 10 9 9 8 7 5 5 6 4 5
10 18 14 15 16 20 23 21 16 17 18 18 20 21 23 23 25 25 25 25 23 22 21 20 20 19 19 19 20 16 15 14 12 11 9 9 9 10 12 12 10 9 9 7 7 7 7 6 4
23 21 11 15 18 20 19 22 18 9 17 20 19 21 22 23 24 25 25 23 24 25 24 21 20 20 20 21 20 20 19 16 15 12 11 10 10 9 10 12 12 10 10 8 8 8 7 8 7
29 25 13 20 15 18 18 17 20 21 20 7 18 17 20 22 22 24 26 25 24 26 24 23 21 21 22 22 21 18 19 15 14 14 13 11 11 10 10 12 13 13 11 10 9 8 8 8 8
25 28 24 18 8 10 14 20 16 13 18 23 20 17 20 21 22 24 26 27 25 24 23 24 23 22 22 23 19 19 18 19 16 16 13 13 11 11 11 13 14 14 13 12 11 9 9 9 9
19 23 23 18 22 20 13 18 13 18 23 19 22 23 19 20 22 23 23 26 25 26 25 25 24 23 25 23 20 18 19 19 18 15 16 15 13 14 13 14 15 14 13 13 13 11 11 11 9
23 19 23 17 17 14 14 13 16 16 17 22 21 20 21 20 20 22 22 23 24 23 24 25 24 24 23 22 21 19 19 21 19 18 18 17 16 14 16 14 15 15 14 14 14 13 12 14 13
27 24 27 15 23 20 16 9 8 4 12 18 18 18 20 18 18 18 19 20 21 23 24 25 25 25 24 21 20 21 20 20 20 20 20 18 18 17 16 16 16 16 16 15 16 17 15 16 16
Wind_Direction
168 176 180 193 231 244 230 88 10 116 116 48 129 20 95 35 22 88 153 133 160 133 145 144 136 130 124 122 122 122 122 123 122 117 111 101 100 89 83 81 73 74 86 85 96 100 102 109 105
162 157 243 257 258 249 93 91 115 69 96 114 117 126 138 75 98 127 137 160 158 142 140 137 136 130 124 123 122 122 125 122 118 110 108 104 96 89 88 84 81 80 78 84 87 91 95 102 103
150 207 267 271 234 19 84 73 83 101 131 143 106 49 68 86 121 145 128 162 161 138 148 129 134 126 130 127 124 125 124 120 116 112 108 103 98 97 91 84 79 88 96 94 91 87 83 85 87
173 204 233 260 85 90 52 105 117 128 122 136 126 102 88 105 134 134 148 165 144 143 140 139 130 134 132 129 127 127 125 121 114 112 109 105 102 96 83 77 84 95 93 92 91 88 77 78 91
238 223 250 238 88 90 68 121 154 112 100 147 162 107 99 122 131 136 149 160 149 147 134 140 137 136 131 133 129 125 120 118 117 114 114 110 101 87 81 84 82 85 85 90 88 83 97 104 92
226 261 246 227 80 101 96 133 144 88 112 114 131 124 104 135 143 146 157 161 150 145 149 139 140 137 138 134 130 126 128 122 118 121 119 112 104 93 79 74 75 75 79 83 88 85 65 68 76
266 266 296 271 93 133 126 147 154 121 139 130 136 128 124 144 152 150 160 157 152 150 146 152 152 143 140 138 133 131 125 122 129 129 123 119 112 100 84 72 68 77 75 84 94 93 85 83 101
256 263 237 164 81 104 132 146 115 139 99 120 138 159 156 154 157 156 158 159 157 155 150 156 157 159 161 154 146 135 134 138 143 137 140 146 147 146 147 173 97 74 73 74 83 104 105 84 113
207 242 234 131 195 116 145 134 125 99 138 164 158 148 143 154 157 157 160 156 154 165 166 165 166 165 169 159 143 153 156 160 166 174 170 202 156 126 162 68 40 86 78 73 81 105 125 155 137
228 265 103 43 36 157 161 165 143 152 152 146 134 114 144 156 163 169 163 163 169 174 172 172 176 165 171 172 149 176 163 182 187 178 167 221 76 50 333 99 120 103 81 114 113 147 207 213 167
189 260 114 183 197 258 161 176 149 146 174 163 151 147 156 160 174 176 171 173 174 172 178 175 181 171 183 170 175 177 182 175 174 194 217 97 314 118 228 156 175 164 181 208 193 190 266 48 58
237 239 267 116 129 277 203 155 173 177 92 154 153 160 160 168 175 177 177 177 177 176 183 178 177 182 194 173 189 183 187 190 207 179 196 207 224 170 270 355 90 211 63 59 342 69 17 162 130
228 239 223 230 255 268 209 194 189 181 136 145 151 165 170 174 177 179 182 179 181 180 183 182 179 185 192 195 186 210 207 197 204 194 183 248 257 208 270 31 285 4 122 179 110 63 253 338 71
182 238 252 259 243 221 193 174 187 165 153 148 160 170 177 181 181 180 185 184 186 184 185 183 188 187 193 198 198 201 212 204 227 214 202 207 260 216 105 233 207 121 355 31 11 18 355 15 16
242 235 218 235 229 175 207 168 200 143 164 160 168 175 181 187 184 186 188 189 189 188 186 191 192 190 194 197 197 209 204 212 216 221 208 226 232 206 296 256 272 10 73 69 108 270 211 141 111
218 223 230 210 197 183 206 208 183 161 172 172 172 177 183 190 190 190 191 192 188 193 191 197 197 191 193 197 195 212 210 222 216 219 216 209 230 241 242 237 241 51 159 169 234 286 236 56 228
202 211 215 164 190 174 209 226 154 174 183 179 180 179 185 189 196 192 193 195 192 195 192 197 201 200 195 197 201 208 204 219 223 221 221 201 227 226 245 252 223 210 291 161 64 238 14 138 139
202 219 204 210 187 203 207 244 164 177 201 190 189 184 187 192 197 193 196 195 197 192 197 200 201 207 198 200 205 210 210 216 219 218 225 222 235 239 230 238 252 248 124 204 149 310 85 344 4
236 217 224 204 166 219 232 237 232 190 203 202 188 196 194 197 192 194 196 196 198 199 196 198 203 199 200 200 200 205 210 206 214 218 223 233 233 229 222 244 184 218 206 284 203 193 207 184 88
230 227 228 222 177 242 251 237 235 193 209 210 195 201 203 192 191 194 195 198 199 199 201 200 204 202 205 201 207 209 211 209 212 213 216 220 222 217 226 234 238 186 214 207 213 220 252 348 105
224 223 223 232 203 237 256 252 241 213 204 211 209 205 203 200 196 192 195 199 198 199 201 202 202 204 206 215 201 202 219 229 209 219 214 208 218 218 221 228 219 218 252 191 206 204 237 241 175
220 222 243 242 230 237 197 253 220 215 201 208 210 206 198 205 198 193 196 200 199 201 201 203 201 204 204 205 203 205 208 210 216 214 215 221 214 224 227 227 215 220 231 265 205 215 253 249 193
230 220 220 236 246 255 249 248 253 205 214 208 210 205 207 197 199 199 196 199 201 200 201 201 201 204 208 199 219 199 217 213 218 221 220 213 215 223 230 228 217 215 223 197 241 192 223 188 286
212 228 224 231 236 239 237 244 244 239 212 220 210 211 207 204 202 202 201 199 203 201 201 199 199 203 203 202 204 213 209 220 213 212 214 224 217 213 221 227 225 221 224 217 206 202 205 234 236
203 199 197 213 221 238 233 233 235 248 235 214 222 206 208 202 202 200 202 200 200 201 202 202 198 200 200 204 206 210 214 210 221 219 212 230 220 220 217 212 214 214 214 219 212 194 204 203 209
198 208 213 212 219 226 215 239 235 232 235 262 229 210 203 202 205 203 200 202 201 203 200 202 197 201 201 203 206 206 210 215 218 221 236 223 231 221 214 202 215 216 217 215 203 204 212 202 209
194 217 223 252 215 266 230 216 244 250 228 222 215 217 211 200 201 205 204 204 203 202 202 200 199 198 201 204 203 206 207 214 215 222 212 230 227 229 213 209 213 214 213 212 207 225 204 208 208
211 201 215 225 240 243 231 237 233 212 218 222 219 216 209 206 201 205 207 206 205 203 202 200 202 201 200 202 204 205 208 210 213 213 218 216 223 220 221 206 213 213 213 214 211 215 210 210 210
200 207 217 225 224 226 237 240 224 230 215 219 218 215 215 210 200 203 207 207 207 209 203 204 204 205 202 203 205 207 207 209 210 213 212 215 213 214 213 206 211 214 214 211 211 223 218 210 213
204 205 204 214 209 239 270 242 119 241 228 218 222 217 219 214 210 207 208 206 205 207 211 205 206 208 207 205 203 203 204 206 209 210 212 209 211 210 209 209 206 210 213 211 212 214 215 212 213